www.pogodaiklimat.ru

Погода и климат >> Архив погоды >> Россия >> город Москва >> Немчиновка


ПОГОДА в Немчиновке

  • Прогноз погоды в Немчиновке
  • Монитор погоды в Немчиновке

АРХИВ ПОГОДЫ в Немчиновке

Время (UTC), дата Ветер
(напр.,м/с)
 
Видим.   Явления Облачность Т
(С)
Тd
(С)
f
(%)
Тe
(С)
Тes
(С)
Комфортность P
(гПа)
Po
(гПа)
Тmin
(С)
Tmax
(С)
R
(мм)
R24
(мм)
S
(см)
03 14.07 штиль 0 4000 м дымка 10/0
[Ci fib]
+9.9 +8.5 91 +9 +10 1011.4 990.0 +9.3
06 14.07 Ю 1 10 км 4/4 600 м
[Cu med, cong]
+17.9 +7.7 51 +19 +25 1010.7 989.9 +9.3
09 14.07 Ю 3 10 км в посл. час ливневой дождь 10/10 300 м
[Sc]
+15.9 +6.8 55 +16 +16 1011.7 990.7
12 14.07 С 1 10 км {ливн. осадки} 10/10 600 м
[Sc]
+18.9 +6.8 45 +20 +20 1011.0 990.2
15 14.07 Ю 3 10 км 8/5 600 м
[Cu med, cong Ac As]
+17.7 +8.5 55 +18 +18 1010.9 990.1 0.0
18 14.07 штиль 0 10 км 8/0
[Ac trans]
+15.8 +8.6 62 +16 +16 1011.4 990.4 +20.2 0.0
21 14.07 Ю 1 10 км 8/0
[Ac trans]
+12.8 +10.1 84 +13 +13 1011.5 990.3
00 15.07 штиль 0 10 км ясно +10.7 +9.0 89 +10 +10 1011.6 990.3
03 15.07 Ю 1 10 км 8/5 600 м
[Sc Ac As Ci sp]
+12.0 +10.0 88 +12 +12 1011.7 990.5 +10.2
06 15.07 З 1 10 км 10/0
[As op]
+16.2 +10.1 67 +17 +19 1011.4 990.5 +10.2
09 15.07 Ю 1 10 км 10/4 600 м
[Sc As op]
+18.6 +9.0 54 +20 +22 1011.2 990.4
12 15.07 Ю 3 10 км 10/10 600 м
[Cu Sc]
+19.0 +7.4 47 +20 +20 1011.0 990.3
15 15.07 Ю 2 10 км 10/6 600 м
[Sc Ac cuf Cc]
+19.0 +8.4 50 +20 +21 1010.9 990.2
18 15.07 штиль 0 10 км 8/3 600 м
[Sc diur, vesp Ci fib]
+15.7 +9.4 66 +16 +16 1011.2 990.2 +20.0
21 15.07 штиль 0 10 км 4/4 600 м
[Sc]
+12.5 +9.7 83 +12 +12 1011.8 990.6
00 16.07 штиль 0 10 км 6/6 600 м
[Sc]
+11.9 +10.3 90 +11 +11 1011.8 990.6
03 16.07 Ю 1 10 км 9/9 600 м
[Sc]
+13.4 +11.6 89 +14 +14 1011.7 990.6 +11.1
06 16.07 СЗ 1 10 км 10/10 600 м
[Sc]
+17.1 +11.1 68 +18 +18 1011.2 990.3 +11.1
09 16.07 В 1 10 км 10/5 600 м
[Cu Sc Cs]
+20.4 +10.5 53 +23 +30 комфорт 1010.3 989.7
12 16.07 С 1 10 км 10/6 600 м
[Cu Sc Ac cast Ci]
+19.9 +11.3 58 +23 +25 комфорт 1009.6 989.0
15 16.07 СВ 1 10 км гроза, ливневой дождь 10/10 600 м
[Cb cap]
+16.4 +14.4 88 +17 +17 1009.8 988.9 1
18 16.07 штиль 0 10 км {гроза, ливн. осадки} 10/5 600 м
[Sc diur, vesp As op]
+15.0 +13.1 88 +15 +15 1009.4 988.5 +20.6 4
21 16.07 Ю 1 10 км 10/4 600 м
[Sc As op]
+14.7 +13.4 92 +15 +15 1009.3 988.3
00 17.07 Ю 1 10 км 10/10 600 м
[Sc]
+14.8 +12.8 88 +15 +15 1009.0 988.1
03 17.07 штиль 0 10 км 10/4 600 м
[Sc As op]
+15.3 +13.1 87 +15 +15 1008.7 987.8 +14.2 3
06 17.07 Ю 1 10 км слаб. ливневой дождь 10/6 600 м
[Cb cap As op]
+15.9 +13.6 86 +17 +17 1008.3 987.5 +14.2 0.8
09 17.07 В 1 10 км {ливн. осадки} 10/4 600 м
[Cu med, cong Ac inh]
+19.0 +13.6 71 +21 +24 комфорт 1007.9 987.3
12 17.07 СЗ 1 10 км слаб. ливневой дождь 10/10 300 м
[Cb cap]
+18.1 +14.7 81 +19 +19 1007.2 986.5
15 17.07 штиль 0 10 км слаб. ливневой дождь {гроза} 10/10 300 м
[Cb cap]
+15.6 +14.3 92 +15 +15 1006.3 985.4 5
18 17.07 СВ 1 4000 м слаб. ливневой дождь {гроза} 10/10 300 м
[Cb cap]
+15.7 +14.5 93 +16 +16 1005.9 985.0 +20.2 5
21 17.07 штиль 0 4000 м ливневой дождь 10/10 300 м
[Cb cap]
+15.6 +14.4 93 +15 +15 1004.9 984.1
00 18.07 Ю 1 4000 м дымка {ливн. осадки} 10/10 600 м
[Sc]
+15.2 +14.2 94 +16 +16 1003.9 983.1
03 18.07 Ю 1 4000 м дымка 10/10 600 м
[Sc]
+15.3 +14.0 92 +16 +16 1003.9 983.1 +15.0 1
06 18.07 Ю 2 10 км 10/10 600 м
[Sc]
+16.6 +12.9 79 +17 +17 1004.2 983.5 +15.0 0.8
09 18.07 Ю 3 10 км 8/8 300 м
[Cu med, cong]
+21.0 +11.4 54 +24 +26 комфорт 1004.0 983.6
12 18.07 Ю 2 4000 м слаб. ливневой дождь 10/10 300 м
[Cb cap]
+17.9 +12.9 73 +18 +18 1004.5 983.9
15 18.07 Ю 4 10 км {ливн. осадки} 8/4 600 м
[Cu med, cong Ci ing]
+20.6 +9.8 50 +22 +23 комфорт 1004.3 983.9 0.0
18 18.07 Ю 1 10 км в посл. час гроза {ливн. осадки} 9/4 300 м
[Cb cap Ac cuf Ci ing]
+14.6 +10.9 78 +15 +15 1005.0 984.1 +21.5 0.0
21 18.07 Ю 1 10 км 8/0
[Ac trans]
+13.4 +11.6 89 +14 +14 1005.5 984.5
00 19.07 Ю 2 4000 м слаб. ливневой дождь 10/10 300 м
[Cb cap]
+13.4 +11.2 87 +13 +13 1005.2 984.2
03 19.07 штиль 0 4000 м слаб. ливневой дождь 10/10 300 м
[Cb cap]
+12.6 +11.2 91 +12 +12 1004.3 983.3 +12.3 2
06 19.07 Ю 2 4000 м слаб. ливневой дождь 10/10 300 м
[Cb cap]
+14.0 +12.4 90 +13 +13 1003.8 982.8 +12.3 2
09 19.07 ЮЗ 2 4000 м в посл. час ливневой дождь 9/9 300 м
[Cb cap]
+15.2 +14.1 93 +15 +16 1004.7 983.8
12 19.07 ЮЗ 1 10 км {ливн. осадки} 10/10 600 м
[Cu med, cong]
+18.8 +11.7 63 +21 +21 комфорт 1005.6 985.0
15 19.07 Ю 3 10 км 10/6 600 м
[Cu med, cong Ci]
+20.7 +10.0 50 +23 +23 комфорт 1006.0 985.5 6
18 19.07 СЗ 1 10 км слаб. ливневой дождь 10/10 300 м
[Cb cap]
+15.4 +12.6 83 +16 +16 1007.4 986.5 +21.1 6
21 19.07 Ю 2 4000 м дымка {ливн. осадки} 10/10 600 м
[Sc]
+14.1 +12.5 90 +14 +14 1008.0 987.0
00 20.07 ЮЗ 1 4000 м слаб. ливневой дождь 10/10 300 м
[Cb cap]
+14.9 +13.2 90 +15 +15 1008.4 987.5
03 20.07 Ю 1 10 км 10/10 600 м
[Sc]
+15.3 +13.3 88 +16 +16 1009.1 988.1 +13.9 3
06 20.07 ЮЗ 1 10 км 10/10 600 м
[Sc]
+17.0 +13.5 80 +18 +18 1010.0 989.1 +13.9 2
09 20.07 З 1 10 км {ливн. осадки} 10/8 600 м
[Cu med, cong Ac cast]
+19.8 +13.0 65 +23 +24 комфорт 1010.8 990.2
12 20.07 ЮЗ 1 10 км в посл. час ливневой дождь 8/6 300 м
[Cb cap Ac cuf Ci ing]
+17.5 +15.3 87 +19 +22 1012.0 991.2
15 20.07 ЮЗ 2 10 км 9/6 600 м
[Sc diur, vesp Ac cuf Ci ing]
+18.2 +14.3 78 +19 +20 1012.5 991.7 5
18 20.07 ЮЗ 1 10 км 6/3 600 м
[Sc diur, vesp Ac cuf]
+17.0 +13.9 82 +18 +18 1013.5 992.6 +21.8 5
21 20.07 З 1 10 км 8/0
[Ac cast]
+16.1 +14.2 88 +17 +17 1014.0 993.0

 

Местоположение метеостанции Немчиновка (город Москва, Россия): широта 55.70 долгота 37.37 высота над уровнем моря 197 м.

В архиве по умолчанию представлена погода в Немчиновке за последнюю неделю. Архивные данные за месяц целиком и за предыдущие месяцы, начиная с января 2011 года, Вы можете получить, выбрав интересующий диапазон дат из раскрывающегося списка и нажав кнопку "Ввод!".


*Определитесь, кто Вы:
робот инопланетянин человек

Внимание! Время в таблицах - всемирное. Для получения местного времени необходимо прибавить поправку, которая равна 3 ч.

Смотрите также архив погоды в соседних городах и на ближайших метеорологических станциях:

Погода в Подмосковной (Московская область, Россия) (11 км)
Погода в Москве (Строгино) (город Москва, Россия) (11 км)
Погода в Внуково (Московская область, Россия) (12 км)
Погода в Красногорске (Московская область, Россия) (12 км)
Погода в Толстопальцево (город Москва, Россия) (16 км)
Погода в Москве (Балчуг) (город Москва, Россия) (17 км)
Погода в Москве (Тушино) (город Москва, Россия) (18 км)
Погода в Москве (Бутово) (город Москва, Россия) (18 км)
Погода в Москве (город Москва, Россия) (21 км)
Погода в Долгопрудном (Московская область, Россия) (27 км)

Пояснения к столбцам:

Ветер - указаны скорость ветра в м/с - средняя за 10 мин, порывы в срок и между сроками (в фигурных скобках) и направление, откуда дует ветер: С - северный, СВ - северо-восточный, В - восточный, ЮВ - юго-восточный, Ю - южный, ЮЗ - юго-западный, З - западный, СЗ - северо-западный.
Видимость - горизонтальная дальность видимости в метрах или километрах. При видимости от 1 до 10 км при отсутствии осадков обычно наблюдается дымка, при ухудшении видимости до 1 км и менее - туман. В сухую погоду видимость может ухудшаться дымом, пылью или мглою.
Явления - указаны атмосферные явления, наблюдавшиеся в срок или в последний час перед сроком; фигурными скобками обозначены явления, наблюдавшиеся между сроками (за 1-3 часа до срока); квадратными скобками обозначены град или гололедные отложения с указанием их диаметра в мм.
Облачность - указаны через наклонную черту общая и нижняя облачность в баллах и высота нижней границы облаков в метрах; квадратными скобками обозначены формы облаков: Ci - перистые, Cs - перисто-слоистые, Cc - перисто-кучевые, Ac - высококучевые, As - высокослоистые, Sc - слоисто-кучевые, Ns - слоисто-дождевые, Cu - кучевые, Cb - кучево-дождевые. Подробнее классификацию облаков см. в Атласе облаков (PDF).
T - Температура воздуха - температура, измеренная на высоте 2 м над землей.
Td - Температура точки росы - температура, при понижении до которой содержащийся в воздухе водяной пар достигнет насыщения.
f - Относительная влажность воздуха - влажноcть воздуха, измеренная на высоте 2 м над землей.
Te - Эффективная температура - температура, которую ощущает одетый по сезону человек в тени. Характеристика душности погоды. При расчете учитывается влияние влажности воздуха и скорости ветра на теплоощущения человека.
Tes - Эффективная температура на солнце - температура, которую ощущает человек, с поправкой на солнечный нагрев. Характеристика знойности погоды. Зависит от высоты солнца над горизонтом, облачности и скорости ветра. Ночью, в пасмурную погоду, а также при ветре 12 м/с и более поправка равна нулю.
P - Атмосферное давление - приведенное к уровню моря атмосферное давление.
Po - Атмосферное давление - измеренное на уровне метеостанции атмосферное давление.
Tmin - Минимальная температура - минимум температуры воздуха на высоте 2 м над землей.
Tmax - Максимальная температура - максимум температуры воздуха на высоте 2 м над землей.
R - Количество осадков - Количество выпавших осадков за период времени, мм. При наведении курсора мыши на число - период времени, за который выпало указанное количество осадков.
R24 - Количество осадков - Количество выпавших осадков за 24 часа, мм.
S - Снежный покров - Высота снежного покрова, см. При наведении курсора мыши на число - состояние снежного покрова и степень покрытия местности в баллах.